Powrót do katalogu

STARLINK-3229

AktywnyŁącznośćVLEO
NORAD 49751·PAYLOAD·🇺🇸 United States

Wystrzelony Dec 2, 2021 z Cape Canaveral Space Force Station

Loading…

Następne Przeloty (najbliższe 24 godziny)

TLE

ŚwieżeSource: CelesTrak SupGP

Epoka: Sep 14, 2026, 21:11 UTC

1 49751C 21115AD  26257.88312500 -.00005649  00000+0 -16704-3 0  2578
2 49751  53.1596  14.3253 0001252  84.2827 172.6590 15.34365401    19

Śledź STARLINK-3229 w czasie rzeczywistym z AllMySat

Download on the App Store